Regional Weather Roundup
Issued by NWS

Home | Current Version | Previous Version | Graphics & Text | Print | Product List | Glossary Off
Versions: 1 2 3 4 5 6 7 8 9 10 11 12 13 14 15 16 17 18 19 20 21 22 23 24 25 26 27 28 29 30 31 32 33 34 35 36 37 38 39 40 41 42 43 44 45 46 47 48 49 50

000
ASUS43 KTOP 250559
RWRKS

WEATHER ROUNDUP FOR KANSAS
NATIONAL WEATHER SERVICE GOODLAND KS
1200 AM CST THU DEC 25 2014

NOTE:  "FAIR" INDICATES FEW OR NO CLOUDS BELOW 12,000 FEET WITH NO
SIGNIFICANT WEATHER AND/OR OBSTRUCTIONS TO VISIBILITY.

KSZ001>006-013>018-027>032-041>047-250700-
NORTHWEST KANSAS

CITY           SKY/WX    TMP DP  RH WIND       PRES   REMARKS
GOODLAND       CLOUDY    33  20  58 S10       29.53F WCI  25
6HR MIN TEMP:  30; 6HR MAX TEMP:  38;

HAYS           CLOUDY    32  16  51 S9        29.63F
HILL CITY      CLOUDY    35  15  44 CALM      29.59F
6HR MIN TEMP:  33; 6HR MAX TEMP:  39;

RUSSELL        CLOUDY    34  22  61 S16       29.65F WCI  24
6HR MIN TEMP:  30; 6HR MAX TEMP:  35;

$$

KSZ061>065-074>080-084>089-250700-
SOUTHWEST KANSAS

CITY           SKY/WX    TMP DP  RH WIND       PRES   REMARKS
DODGE CITY     MOCLDY    31  17  56 S15       29.65F WCI  20
6HR MIN TEMP:  29; 6HR MAX TEMP:  36;

ELKHART          N/A     37  15  40 SW12        N/A  WCI  29
GARDEN CITY    MOCLDY    30  20  66 S9        29.60F
6HR MIN TEMP:  28; 6HR MAX TEMP:  36;

GREAT BEND     MOCLDY    34  19  55 S13       29.70F WCI  25
LIBERAL        MOCLDY    28  14  54 S10       29.65F WCI  19
$$

KSZ066>073-081>083-090>101-250700-
SOUTHEAST KANSAS

CITY           SKY/WX    TMP DP  RH WIND       PRES   REMARKS
CHANUTE        CLEAR     32  29  88 S10       29.85F WCI  24
6HR MIN TEMP:  27; 6HR MAX TEMP:  36;

COFFEYVILLE    CLEAR     30  28  92 S6        29.88F
6HR MIN TEMP:  29; 6HR MAX TEMP:  36;

HUTCHINSON     CLEAR     32  23  69 S10       29.75F WCI  24
6HR MIN TEMP:  29; 6HR MAX TEMP:  38;

NEWTON         CLEAR     32  19  59 S12       29.78S WCI  23
PARSONS        CLEAR     32  29  88 S6        29.87F
6HR MIN TEMP:  28; 6HR MAX TEMP:  33;

WICHITA INTL   CLEAR     31  23  72 S9        29.79S
6HR MIN TEMP:  29; 6HR MAX TEMP:  36;

WICHITA JABRA  CLEAR     33  23  66 S10       29.79S WCI  25
6HR MIN TEMP:  29; 6HR MAX TEMP:  36;

WINFIELD       CLEAR     31  25  78 S9        29.83F
6HR MIN TEMP:  29; 6HR MAX TEMP:  37;

$$

KSZ007>012-019>026-033>040-048>060-102>105-250700-
NORTHEAST KANSAS

CITY           SKY/WX    TMP DP  RH WIND       PRES   REMARKS
CONCORDIA      PTCLDY    34  24  67 S16       29.67F WCI  24
6HR MIN TEMP:  31; 6HR MAX TEMP:  35;

EMPORIA        CLEAR     28  25  88 S13       29.79S WCI  17
6HR MIN TEMP:  26; 6HR MAX TEMP:  30;

LAWRENCE       CLEAR     29  26  89 SE6       29.81S
6HR MIN TEMP:  27; 6HR MAX TEMP:  35;

MANHATTAN      CLEAR     29  25  85 SW8       29.75S
6HR MIN TEMP:  23; 6HR MAX TEMP:  30;

OLATHE IND     CLEAR     30  28  92 S10       29.81F WCI  21
6HR MIN TEMP:  29; 6HR MAX TEMP:  34;

OLATHE EXE     CLEAR     31  28  89 S10       29.80F WCI  22
6HR MIN TEMP:  29; 6HR MAX TEMP:  35;

SALINA         CLEAR     35  25  66 S12       29.72F WCI  27
6HR MIN TEMP:  30; 6HR MAX TEMP:  36;

TOPEKA BILLARD CLEAR     33  29  85 S10       29.80R WCI  25
6HR MIN TEMP:  31; 6HR MAX TEMP:  36;

TOPEKA FORBES  CLEAR     32  28  85 S10       29.78S WCI  24
6HR MIN TEMP:  29; 6HR MAX TEMP:  35;

$$


USA.gov is the U.S. government's official web portal to all federal, state and local government web resources and services.